Location: Kellogg
(38.0159°N, 90.0546°W)
Time: 15:41:05
(UTC+00:00)

Courier 1B - Pass Details

Date: 16 September 2024
Orbit: 962 x 1208 km, 28.3° (Epoch: 07 October)

Event Time Altitude Azimuth Distance (km) Brightness Sun altitude
Rises 23:09:29 0° 263° (W) 3,981 13.0 10.2°
Reaches altitude 10° 23:12:32 10° 254° (WSW) 3,053 12.4 9.6°
Maximum altitude 23:19:08 33° 194° (SSW) 1,887 9.3 8.3°
Drops below altitude 10° 23:25:55 10° 134° (SE) 3,135 9.8 7.0°
Sets 23:29:06 0° 125° (SE) 4,102 10.3 6.4°
